[[{"header":{"parameterUnit":"m.s-1","parameterCategory":2,"la1":30.2991,"la2":30.254,"lo1":-89.0895,"lo2":-89.0444,"dy":0.0017,"dx":0.0017,"nx":28,"ny":28,"refTime":"2025-07-07T03:00:00:Z","depth":"0","parameterNumber":2,"parameterNumberName":"U-component_of_CURRENTS"},"data":[0,0,0,0,0,0,0,0,0,0,0,0,0,0,0,0,0,0,0,0,0,0,0,0,0,0,0,0,0,0,0,0,0,0,0,0,0,0,0,0,0,0,0,0,0,0,0,0,0,0,0,0,0,0,0,0,0,0,0.1492,0.1492,0,0.1506,0.1506,0.1506,0.1507,0.1507,0.1507,0.1507,0.1533,0.1534,0.1535,0,0,0,0,0,0,0,0,0,0,0,0,0,0.1443,0.1443,0.1492,0.1492,0.1493,0.1506,0.1506,0.1506,0.1507,0.1507,0.1507,0.1507,0.1533,0.1534,0.1535,0,0,0,0,0,0,0,0,0,0,0,0,0,0.1459,0.1444,0.1492,0.1497,0.1497,0.1506,0.1506,0.1506,0.1507,0.1507,0.1507,0.1507,0.1533,0.1534,0.1535,0.1539,0,0,0.1538,0.1538,0,0,0,0,0,0,0,0,0.1458,0.146,0.1496,0.1496,0.1497,0.1507,0.1499,0.1519,0.1507,0.15,0.1507,0.1507,0.1527,0.1529,0.1527,0.154,0.1542,0.1538,0.1539,0.1539,0.1539,0,0,0,0,0,0,0,0.1457,0.146,0.1495,0.1496,0.1497,0.149,0.1493,0.1502,0.1511,0.1501,0.1502,0.1507,0.1528,0.1526,0.1528,0.1542,0.1538,0.1539,0.1539,0.154,0.1595,0.1596,0,0,0,0,0,0,0.1461,0.1459,0.1495,0.1496,0.148,0.1491,0.1494,0.1502,0.1511,0.1513,0.1507,0.1507,0.1525,0.1527,0.1529,0.1559,0.1539,0.154,0.1541,0.1594,0.1595,0.1596,0,0,0,0,0,0,0.146,0.1465,0.1494,0.1479,0.1483,0.1493,0.1501,0.1502,0.1502,0.1516,0.1518,0.1506,0.1525,0.1528,0.1551,0.1559,0.154,0.1541,0.1593,0.1594,0.1595,0.1603,0,0,0,0,0,0,0.1459,0.1464,0.1469,0.148,0.1484,0.1504,0.1501,0.1502,0.1506,0.1506,0.1516,0.1519,0.1525,0.1549,0.1552,0.156,0.1542,0.1592,0.1593,0.1595,0.1602,0.1605,0.1607,0,0,0,0,0,0.1457,0.146,0.1469,0.1474,0.1492,0.1505,0.1506,0.1511,0.1506,0.151,0.1523,0.1518,0.1561,0.1551,0.1553,0.1562,0.1591,0.1593,0.1595,0.1601,0.1604,0.1607,0,0,0,0,0,0,0.1437,0.1462,0.1471,0.1481,0.1497,0.1506,0.1506,0.1511,0.1521,0.1522,0.1529,0.1534,0.1557,0.1561,0.1549,0.1585,0.1575,0.1578,0.1579,0.1582,0.1585,0.157,0.1543,0,0,0,0,0,0.1438,0.1451,0.1472,0.1482,0.1486,0.1496,0.15,0.1509,0.1521,0.1524,0.1534,0.1548,0.1566,0.1575,0.159,0.1608,0.1684,0.1617,0.1619,0.1621,0.1612,0.171,0.1721,0.1602,0.1602,0.1602,0,0,0.1436,0.1449,0.1459,0.1479,0.1486,0.1501,0.1497,0.1508,0.1522,0.1527,0.1543,0.1557,0.1574,0.1597,0.1607,0.1602,0.1718,0.1624,0.1625,0.1615,0.1713,0.1725,0.1735,0.1604,0.1603,0.1603,0,0,0.1443,0.1446,0.1464,0.1475,0.1494,0.1501,0.1505,0.152,0.1525,0.1548,0.1557,0.1574,0.1599,0.1612,0.1621,0.1646,0.1727,0.1656,0.1656,0.1751,0.1762,0.1772,0.1984,0.2013,0.1657,0.1657,0.1657,0,0.1433,0.1469,0.147,0.1486,0.1496,0.1502,0.1521,0.1526,0.155,0.1557,0.1556,0.1599,0.1603,0.1636,0.1639,0.1649,0.1762,0.1641,0.1755,0.1766,0.1776,0.1991,0.2022,0.1658,0.1658,0.1658,0.1657,0,0.147,0.1486,0.149,0.1518,0.1522,0.154,0.1548,0.1555,0.1559,0.1572,0.1603,0.1617,0.1647,0.1648,0.1645,0.1711,0.1797,0.175,0.1747,0.1789,0.2014,0.2046,0.1659,0.1658,0.1658,0.1658,0,0,0.1474,0.1511,0.1512,0.1526,0.1543,0.1549,0.156,0.1579,0.1597,0.1609,0.1655,0.1649,0.1662,0.1674,0.1685,0.1741,0.1928,0.1772,0.1777,0.1987,0.2254,0.2349,0.2395,0.1908,0.1911,0.1914,0.2421,0,0.1504,0.1548,0.1552,0.1578,0.1599,0.1589,0.1598,0.1609,0.1629,0.1674,0.1682,0.1735,0.1675,0.1717,0.1754,0.1894,0.1998,0.1802,0.2178,0.2192,0.227,0.2427,0.2365,0.2811,0.2453,0.2458,0.2462,0,0.1551,0.157,0.1613,0.1617,0.162,0.1629,0.1645,0.1655,0.1698,0.1723,0.1759,0.1798,0.1899,0.1832,0.2088,0.198,0.2109,0.2203,0.2224,0.2316,0.2342,0.2691,0.2884,0.2756,0.2513,0.2509,0.2505,0,0.1584,0.1608,0.1644,0.1649,0.1657,0.1657,0.1654,0.1674,0.1711,0.1785,0.187,0.1945,0.2079,0.2184,0.2368,0.2262,0.2692,0.2578,0.2799,0.2814,0.2833,0.2842,0.2932,0.2749,0.2748,0.2746,0.2745,0,0.1628,0.1651,0.1661,0.1676,0.1701,0.1682,0.1716,0.1724,0.1792,0.1895,0.1912,0.2067,0.2168,0.2406,0.2492,0.2817,0.2819,0.2863,0.2943,0.2847,0.285,0.2791,0.2711,0.2766,0.2761,0.2758,0.2754,0,0.1684,0.169,0.1729,0.173,0.1726,0.1746,0.1769,0.1825,0.1867,0.2028,0.2084,0.2271,0.2589,0.2737,0.3022,0.3063,0.3237,0.3385,0.3331,0.3391,0.3394,0.3319,0.3419,0.3345,0.3729,0.3734,0.3739,0,0.1738,0.1762,0.1778,0.1817,0.1824,0.184,0.188,0.1875,0.1966,0.2176,0.231,0.2628,0.2855,0.3343,0.3489,0.3763,0.3521,0.3849,0.3558,0.3447,0.3423,0.3181,0.3089,0.3662,0.3666,0.3669,0.3671,0,0.184,0.184,0.1875,0.1932,0.1976,0.2009,0.2066,0.212,0.2185,0.2327,0.259,0.2776,0.3244,0.3493,0.3836,0.3955,0.3656,0.3916,0.3782,0.3381,0.3144,0.3094,0.3355,0.3696,0.3693,0.3691,0.369,0.3689,0.1942,0.198,0.2019,0.2059,0.2114,0.2165,0.2167,0.2268,0.2367,0.2532,0.2751,0.2988,0.3355,0.3808,0.3935,0.405,0.3901,0.3918,0.3867,0.3654,0.3441,0.3819,0.4215,0.4216,0.4216,0.4217,0.4217,0,0.2054,0.2083,0.215,0.2173,0.2218,0.2219,0.2293,0.2291,0.2384,0.2592,0.2772,0.3131,0.3451,0.3709,0.3989,0.3952,0.3726,0.387,0.3451,0.3382,0.3748,0.3591,0.3888,0.3888,0.3888,0.3888,0.3888,0.3888,0.2136,0.2201,0.2187,0.2236,0.2253,0.2257,0.2267,0.23,0.2389,0.2552,0.2711,0.2896,0.3275,0.3697,0.3806,0.3762,0.3437,0.3386,0.3307,0.3484,0.3477,0.3471,0.3298,0.3529,0.3528,0.2778,0.2773,0.2769]},{"header":{"parameterUnit":"m.s-1","parameterCategory":2,"la1":30.2991,"la2":30.254,"lo1":-89.0895,"lo2":-89.0444,"dy":0.0017,"dx":0.0017,"nx":28,"ny":28,"refTime":"2025-07-07T03:00:00:Z","depth":"0","parameterNumber":3,"parameterNumberName":"V-component_of_CURRENTS"},"data":[0,0,0,0,0,0,0,0,0,0,0,0,0,0,0,0,0,0,0,0,0,0,0,0,0,0,0,0,0,0,0,0,0,0,0,0,0,0,0,0,0,0,0,0,0,0,0,0,0,0,0,0,0,0,0,0,0,0,-0.0582,-0.0583,0,-0.0661,-0.0662,-0.0662,-0.0684,-0.0684,-0.0684,-0.0684,-0.0774,-0.0777,-0.0779,0,0,0,0,0,0,0,0,0,0,0,0,0,-0.0435,-0.0438,-0.0582,-0.0583,-0.0585,-0.0661,-0.0662,-0.0663,-0.0684,-0.0684,-0.0684,-0.0684,-0.0773,-0.0776,-0.078,0,0,0,0,0,0,0,0,0,0,0,0,0,-0.0503,-0.0438,-0.0582,-0.0606,-0.0609,-0.0661,-0.0662,-0.0663,-0.0685,-0.0684,-0.0684,-0.0683,-0.0772,-0.0776,-0.078,-0.0813,0,0,-0.0792,-0.0794,0,0,0,0,0,0,0,0,-0.0499,-0.0508,-0.0601,-0.0605,-0.0608,-0.0664,-0.0643,-0.0714,-0.0685,-0.0654,-0.0684,-0.0683,-0.074,-0.0747,-0.0759,-0.0817,-0.0821,-0.0793,-0.0795,-0.0797,-0.0798,0,0,0,0,0,0,0,-0.0494,-0.0505,-0.0611,-0.0603,-0.0607,-0.0608,-0.0617,-0.0656,-0.0697,-0.0657,-0.0659,-0.0671,-0.0742,-0.0755,-0.0762,-0.0822,-0.0793,-0.0796,-0.0799,-0.08,-0.0906,-0.0907,0,0,0,0,0,0,-0.0491,-0.0501,-0.0609,-0.0614,-0.0554,-0.0611,-0.0621,-0.0645,-0.0696,-0.0704,-0.0671,-0.0672,-0.0749,-0.0757,-0.0765,-0.081,-0.0797,-0.08,-0.0803,-0.0906,-0.0907,-0.0907,0,0,0,0,0,0,-0.0487,-0.05,-0.0606,-0.056,-0.0573,-0.0614,-0.0641,-0.0647,-0.0661,-0.0708,-0.0715,-0.0679,-0.0749,-0.0759,-0.0799,-0.0813,-0.0802,-0.0806,-0.0905,-0.0906,-0.0907,-0.0897,0,0,0,0,0,0,-0.0483,-0.0499,-0.0513,-0.056,-0.0576,-0.0639,-0.0642,-0.0649,-0.067,-0.0671,-0.0717,-0.0725,-0.0749,-0.0792,-0.0802,-0.0818,-0.0809,-0.0905,-0.0906,-0.0907,-0.0897,-0.0897,-0.0898,0,0,0,0,0,-0.0478,-0.0506,-0.0514,-0.0527,-0.0596,-0.064,-0.0648,-0.0673,-0.067,-0.0682,-0.0707,-0.0723,-0.0805,-0.0796,-0.0808,-0.0825,-0.0905,-0.0906,-0.0906,-0.0897,-0.0897,-0.0898,0,0,0,0,0,0,-0.0457,-0.0512,-0.0522,-0.0567,-0.0599,-0.0644,-0.0662,-0.0673,-0.0702,-0.0701,-0.0734,-0.0744,-0.078,-0.0805,-0.0795,-0.0857,-0.0856,-0.0859,-0.0844,-0.0845,-0.0846,-0.0811,-0.0812,0,0,0,0,0,-0.0457,-0.0491,-0.0536,-0.0573,-0.0587,-0.062,-0.064,-0.0656,-0.0689,-0.0701,-0.073,-0.0762,-0.0795,-0.082,-0.0849,-0.0892,-0.084,-0.0909,-0.091,-0.091,-0.0889,-0.082,-0.081,-0.091,-0.091,-0.091,0,0,-0.0462,-0.0495,-0.0516,-0.0569,-0.0595,-0.0625,-0.0631,-0.0664,-0.0685,-0.0708,-0.0741,-0.0763,-0.0803,-0.0843,-0.0862,-0.0868,-0.0852,-0.0911,-0.0911,-0.0889,-0.0819,-0.0809,-0.08,-0.0911,-0.0911,-0.0911,0,0,-0.0484,-0.0513,-0.0544,-0.0569,-0.0608,-0.063,-0.0636,-0.0676,-0.0688,-0.0724,-0.074,-0.0762,-0.0824,-0.0847,-0.087,-0.0891,-0.0849,-0.091,-0.0896,-0.083,-0.082,-0.0811,-0.0711,-0.0693,-0.0919,-0.0919,-0.0919,0,-0.0476,-0.0531,-0.0558,-0.0589,-0.0606,-0.063,-0.0654,-0.0679,-0.0723,-0.0711,-0.0733,-0.0765,-0.0822,-0.0838,-0.0864,-0.0891,-0.0827,-0.0893,-0.0826,-0.0816,-0.0807,-0.0708,-0.0688,-0.0919,-0.0919,-0.0919,-0.0919,0,-0.0524,-0.0559,-0.0578,-0.0622,-0.0641,-0.0669,-0.0697,-0.0703,-0.0713,-0.0717,-0.0717,-0.0769,-0.0766,-0.0816,-0.0863,-0.0836,-0.08,-0.0824,-0.0816,-0.0795,-0.0693,-0.0672,-0.0918,-0.0918,-0.0918,-0.0919,0,0,-0.0507,-0.0594,-0.0596,-0.0599,-0.0655,-0.0658,-0.069,-0.0694,-0.0635,-0.07,-0.062,-0.0743,-0.0714,-0.0737,-0.0778,-0.0772,-0.0683,-0.078,-0.0777,-0.0665,-0.0489,-0.0444,-0.0417,-0.0685,-0.0682,-0.068,-0.0436,0,-0.0524,-0.0582,-0.0622,-0.0641,-0.0657,-0.0671,-0.0664,-0.0661,-0.0637,-0.0558,-0.0606,-0.0546,-0.0699,-0.065,-0.0682,-0.0642,-0.0631,-0.0744,-0.054,-0.0533,-0.0483,-0.0393,-0.0429,-0.0213,-0.0415,-0.0412,-0.0409,0,-0.0538,-0.0572,-0.061,-0.06,-0.0599,-0.0599,-0.0521,-0.0515,-0.0438,-0.0395,-0.0367,-0.0349,-0.034,-0.0451,-0.0412,-0.0464,-0.0487,-0.0493,-0.0484,-0.0427,-0.045,-0.0273,-0.0168,-0.0418,-0.0377,-0.038,-0.0382,0,-0.0476,-0.0538,-0.0557,-0.0569,-0.0577,-0.0549,-0.0523,-0.0452,-0.0349,-0.0239,-0.0096,-0.0121,-0.0013,-0.0087,-0.0141,-0.024,-0.0051,-0.0173,-0.0161,-0.0156,-0.0139,-0.0137,-0.0237,-0.015,-0.015,-0.0151,-0.0151,0,-0.0458,-0.0448,-0.0518,-0.0513,-0.0431,-0.0466,-0.0318,-0.0274,-0.0124,0.0082,0.0027,0.0221,0.0088,0.0165,0.0016,0.0044,0.0085,-0.0109,-0.008,-0.0136,-0.0138,-0.0318,-0.0452,-0.0142,-0.0144,-0.0145,-0.0147,0,-0.0337,-0.0428,-0.0394,-0.0409,-0.0396,-0.0305,-0.0158,-0.0001,0.0091,0.0381,0.0452,0.0568,0.0673,0.0542,0.0522,0.0337,0.0201,0.0274,0.0235,0.0251,-0.0031,-0.016,-0.0099,-0.0183,0.034,0.0343,0.0345,0,-0.0264,-0.0262,-0.0261,-0.0188,-0.0174,-0.0068,0.0061,0.0126,0.0319,0.0616,0.0812,0.0982,0.1138,0.1125,0.0849,0.068,0.0394,0.0506,0.0256,-0.0003,-0.0127,-0.0217,-0.0303,0.0298,0.03,0.0301,0.0302,0,-0.0047,-0.0062,-0.0015,0.0088,0.02,0.0335,0.0503,0.0655,0.081,0.1028,0.136,0.1498,0.1493,0.134,0.1086,0.0896,0.0339,0.053,0.0269,-0.0144,-0.025,-0.0331,0.0108,0.0315,0.0313,0.0312,0.0312,0.0311,0.0199,0.0289,0.0336,0.0448,0.0571,0.0754,0.0881,0.1068,0.1331,0.1633,0.1739,0.193,0.1648,0.1304,0.1042,0.047,0.047,0.0208,0.0093,0.0041,-0.0118,0.0371,0.0586,0.0586,0.0586,0.0587,0.0587,0,0.0518,0.0579,0.0711,0.0837,0.1001,0.0973,0.1211,0.1327,0.1598,0.1843,0.2057,0.2017,0.162,0.1151,0.0448,0.0056,-0.0144,-0.0176,-0.0393,-0.0449,-0.0004,-0.0098,-0.003,-0.003,-0.003,-0.003,-0.0029,-0.0029,0.0717,0.089,0.0898,0.1189,0.1271,0.1458,0.1559,0.1712,0.1856,0.2103,0.2181,0.2234,0.1882,0.0621,-0.0273,-0.0475,-0.081,-0.08,-0.0936,-0.0774,-0.0753,-0.0732,-0.0858,-0.095,-0.0951,-0.1385,-0.139,-0.1393]}],[{"header":{"parameterUnit":"m.s-1","parameterCategory":2,"la1":30.2991,"la2":30.254,"lo1":-89.0895,"lo2":-89.0444,"dy":0.0017,"dx":0.0017,"nx":28,"ny":28,"refTime":"2025-07-07T03:00:00:Z","depth":"2","parameterNumber":2,"parameterNumberName":"U-component_of_CURRENTS"},"data":[0,0,0,0,0,0,0,0,0,0,0,0,0,0,0,0,0,0,0,0,0,0,0,0,0,0,0,0,0,0,0,0,0,0,0,0,0,0,0,0,0,0,0,0,0,0,0,0,0,0,0,0,0,0,0,0,0,0,0.0575,0.0575,0,0.0578,0.0578,0.0578,0.0577,0.0577,0.0577,0.0577,0.0533,0.0532,0.0531,0,0,0,0,0,0,0,0,0,0,0,0,0,0.054,0.054,0.0575,0.0575,0.0575,0.0578,0.0578,0.0578,0.0577,0.0577,0.0577,0.0577,0.0534,0.0532,0.0531,0,0,0,0,0,0,0,0,0,0,0,0,0,0.0548,0.054,0.0575,0.0577,0.0577,0.0578,0.0578,0.0578,0.0577,0.0577,0.0577,0.0578,0.0534,0.0532,0.053,0.0514,0,0,0.0524,0.0524,0,0,0,0,0,0,0,0,0.0548,0.0549,0.0576,0.0577,0.0577,0.0579,0.055,0.0555,0.0577,0.0575,0.0577,0.0578,0.0546,0.0543,0.054,0.0512,0.051,0.0524,0.0523,0.0522,0.0522,0,0,0,0,0,0,0,0.0547,0.0549,0.0574,0.0577,0.0577,0.0568,0.057,0.055,0.0556,0.0575,0.0575,0.0579,0.0545,0.0542,0.0539,0.0509,0.0524,0.0523,0.0521,0.0521,0.054,0.0542,0,0,0,0,0,0,0.0553,0.0548,0.0574,0.0574,0.0565,0.0569,0.0571,0.0577,0.0557,0.0556,0.0579,0.0579,0.0545,0.0541,0.0538,0.0561,0.0522,0.052,0.0519,0.0538,0.054,0.0542,0,0,0,0,0,0,0.0552,0.0555,0.0574,0.0563,0.0565,0.057,0.0576,0.0577,0.0576,0.0562,0.0559,0.058,0.0545,0.054,0.0546,0.0557,0.0519,0.0518,0.0536,0.0539,0.0541,0.0579,0,0,0,0,0,0,0.0551,0.0555,0.0557,0.0563,0.0566,0.0584,0.0576,0.0577,0.058,0.058,0.0561,0.0557,0.0545,0.0549,0.0544,0.0554,0.0516,0.0534,0.0538,0.0541,0.0576,0.0583,0.0589,0,0,0,0,0,0.055,0.0555,0.0557,0.056,0.0571,0.0584,0.0585,0.0587,0.058,0.0585,0.0585,0.0558,0.0566,0.0549,0.0542,0.0552,0.0533,0.0537,0.054,0.0573,0.0581,0.0588,0,0,0,0,0,0,0.0538,0.0556,0.0558,0.0568,0.058,0.0585,0.059,0.0587,0.0589,0.059,0.0571,0.0568,0.0582,0.0566,0.0547,0.0572,0.0547,0.055,0.0575,0.0582,0.0588,0.058,0.0515,0,0,0,0,0,0.0538,0.0549,0.0563,0.0571,0.0579,0.0583,0.0586,0.059,0.0595,0.0596,0.0589,0.0587,0.0592,0.0586,0.0589,0.0588,0.062,0.0596,0.0603,0.0608,0.0601,0.0645,0.0654,0.0555,0.0555,0.0555,0,0,0.0535,0.0547,0.0552,0.057,0.0578,0.0593,0.0585,0.0598,0.0609,0.0589,0.0603,0.0607,0.0601,0.0617,0.062,0.0601,0.0671,0.0613,0.0617,0.0607,0.065,0.066,0.0668,0.0557,0.0557,0.0557,0,0,0.0541,0.0547,0.0562,0.0575,0.0594,0.06,0.0605,0.0619,0.0624,0.064,0.0639,0.065,0.0649,0.0652,0.065,0.069,0.0709,0.0698,0.071,0.0754,0.0762,0.0769,0.0896,0.0914,0.0693,0.0693,0.0693,0,0.0534,0.0559,0.0567,0.0587,0.0599,0.0604,0.0623,0.063,0.0645,0.0652,0.0653,0.0675,0.0665,0.0681,0.0702,0.07,0.076,0.0676,0.0761,0.0768,0.0774,0.0902,0.0921,0.0696,0.0695,0.0695,0.0695,0,0.0557,0.0575,0.0586,0.0614,0.0625,0.0644,0.0659,0.0672,0.0679,0.0687,0.0713,0.0715,0.0728,0.0732,0.0723,0.0766,0.0813,0.0769,0.0736,0.0786,0.092,0.0939,0.0699,0.0698,0.0697,0.0697,0,0,0.0548,0.0592,0.0598,0.0611,0.0643,0.0651,0.0676,0.0699,0.0718,0.0731,0.077,0.0765,0.0771,0.0772,0.0771,0.0795,0.0916,0.0804,0.0805,0.0924,0.1093,0.1084,0.1105,0.0889,0.089,0.0892,0.1194,0,0.0565,0.0606,0.0624,0.0653,0.0672,0.0686,0.0705,0.0723,0.0751,0.0795,0.0795,0.0838,0.0786,0.0818,0.0827,0.0907,0.0957,0.0843,0.1031,0.1038,0.1015,0.1121,0.0968,0.1218,0.1213,0.1217,0.1219,0,0.0587,0.061,0.0646,0.0673,0.0681,0.069,0.0727,0.075,0.0803,0.0837,0.0867,0.0897,0.096,0.0904,0.1035,0.0975,0.1032,0.1076,0.1088,0.1065,0.1061,0.1152,0.1253,0.1251,0.1249,0.1246,0.1244,0,0.0585,0.0624,0.065,0.0662,0.0693,0.0697,0.0711,0.0754,0.0819,0.0885,0.0979,0.1003,0.1107,0.1128,0.1218,0.1152,0.1385,0.1307,0.1357,0.1362,0.1257,0.1247,0.1382,0.1382,0.1381,0.1381,0.138,0,0.0603,0.0624,0.0643,0.0656,0.0685,0.0689,0.0742,0.077,0.0869,0.0986,0.1005,0.1133,0.1168,0.13,0.1302,0.1429,0.1463,0.1396,0.1428,0.1276,0.1265,0.1279,0.1262,0.1392,0.1389,0.1387,0.1385,0,0.0622,0.0632,0.0665,0.0684,0.0691,0.071,0.0799,0.0878,0.0939,0.1117,0.1171,0.1322,0.1488,0.1535,0.1654,0.1602,0.167,0.169,0.1555,0.1561,0.161,0.1592,0.1802,0.1804,0.1806,0.1807,0.1808,0,0.0643,0.066,0.0699,0.0758,0.0773,0.0809,0.0883,0.0919,0.1031,0.1237,0.136,0.1566,0.1688,0.1873,0.1818,0.1864,0.1828,0.1751,0.154,0.1638,0.1649,0.1628,0.1609,0.1477,0.1475,0.1474,0.1473,0,0.0707,0.0719,0.0777,0.0877,0.0944,0.1008,0.1095,0.1168,0.1262,0.1395,0.1602,0.17,0.1864,0.1839,0.1876,0.1835,0.1713,0.1726,0.1892,0.1359,0.1344,0.135,0.134,0.1461,0.1462,0.1463,0.1463,0.1464,0.079,0.0846,0.0938,0.1003,0.1115,0.1188,0.1187,0.131,0.1416,0.1524,0.1691,0.174,0.1745,0.1698,0.1691,0.1658,0.1723,0.1604,0.1603,0.1604,0.1477,0.146,0.1584,0.1586,0.1587,0.1589,0.159,0,0.085,0.0935,0.1067,0.1126,0.1213,0.1247,0.1335,0.129,0.1338,0.1488,0.1581,0.1466,0.1478,0.1495,0.1431,0.1429,0.1336,0.1377,0.1246,0.1261,0.1273,0.1121,0.1138,0.1137,0.1136,0.1135,0,0,0.0905,0.0997,0.102,0.1136,0.1213,0.1228,0.1221,0.12,0.1225,0.1237,0.1246,0.1337,0.1405,0.1228,0.123,0.1199,0.1198,0.1137,0.1496,0.1354,0.1364,0.1404,0.1188,0,0,0,0,0]},{"header":{"parameterUnit":"m.s-1","parameterCategory":2,"la1":30.2991,"la2":30.254,"lo1":-89.0895,"lo2":-89.0444,"dy":0.0017,"dx":0.0017,"nx":28,"ny":28,"refTime":"2025-07-07T03:00:00:Z","depth":"2","parameterNumber":3,"parameterNumberName":"V-component_of_CURRENTS"},"data":[0,0,0,0,0,0,0,0,0,0,0,0,0,0,0,0,0,0,0,0,0,0,0,0,0,0,0,0,0,0,0,0,0,0,0,0,0,0,0,0,0,0,0,0,0,0,0,0,0,0,0,0,0,0,0,0,0,0,-0.0271,-0.0271,0,-0.0289,-0.0289,-0.0289,-0.0327,-0.0328,-0.0329,-0.033,-0.0291,-0.029,-0.0288,0,0,0,0,0,0,0,0,0,0,0,0,0,-0.0237,-0.0237,-0.0271,-0.0271,-0.0271,-0.0289,-0.0289,-0.0289,-0.0327,-0.0328,-0.0329,-0.033,-0.0292,-0.029,-0.0288,0,0,0,0,0,0,0,0,0,0,0,0,0,-0.0252,-0.0237,-0.0271,-0.0293,-0.0296,-0.0289,-0.0289,-0.0289,-0.0327,-0.0328,-0.0329,-0.033,-0.0293,-0.029,-0.0287,-0.0244,0,0,-0.0279,-0.0278,0,0,0,0,0,0,0,0,-0.0251,-0.0253,-0.029,-0.0292,-0.0294,-0.0308,-0.0263,-0.0272,-0.0326,-0.0313,-0.033,-0.0331,-0.0291,-0.0289,-0.0288,-0.0242,-0.0241,-0.0279,-0.0277,-0.0276,-0.0275,0,0,0,0,0,0,0,-0.025,-0.0252,-0.0277,-0.029,-0.0293,-0.0292,-0.0295,-0.0265,-0.0293,-0.0315,-0.0318,-0.0321,-0.0292,-0.0291,-0.0288,-0.024,-0.0279,-0.0276,-0.0275,-0.0274,-0.0186,-0.0185,0,0,0,0,0,0,-0.025,-0.0251,-0.0276,-0.0277,-0.0277,-0.0291,-0.0295,-0.0301,-0.0295,-0.0296,-0.032,-0.0323,-0.0295,-0.0291,-0.0286,-0.0275,-0.0276,-0.0273,-0.0272,-0.0186,-0.0186,-0.0185,0,0,0,0,0,0,-0.0249,-0.0252,-0.0275,-0.0265,-0.0269,-0.0291,-0.0297,-0.0301,-0.0309,-0.03,-0.03,-0.0326,-0.0296,-0.029,-0.0273,-0.0272,-0.0272,-0.0269,-0.0187,-0.0186,-0.0185,-0.0225,0,0,0,0,0,0,-0.0248,-0.0252,-0.0255,-0.0266,-0.0269,-0.0271,-0.0296,-0.03,-0.0309,-0.0314,-0.0303,-0.0301,-0.0297,-0.0278,-0.0271,-0.0268,-0.0267,-0.0188,-0.0187,-0.0186,-0.0225,-0.0226,-0.0227,0,0,0,0,0,-0.0247,-0.0241,-0.0255,-0.0259,-0.0274,-0.027,-0.0272,-0.0291,-0.0308,-0.0305,-0.0309,-0.0302,-0.0264,-0.0275,-0.0267,-0.0264,-0.0189,-0.0187,-0.0186,-0.0225,-0.0226,-0.0227,0,0,0,0,0,0,-0.0224,-0.0245,-0.0261,-0.0262,-0.0268,-0.0278,-0.0276,-0.029,-0.029,-0.0296,-0.0293,-0.029,-0.0276,-0.0255,-0.0267,-0.0232,-0.0224,-0.0221,-0.0256,-0.0257,-0.0258,-0.0292,-0.0265,0,0,0,0,0,-0.0221,-0.0228,-0.0243,-0.0244,-0.0247,-0.0262,-0.0265,-0.0277,-0.028,-0.0283,-0.0279,-0.0269,-0.0259,-0.025,-0.0232,-0.0206,-0.0219,-0.0197,-0.0198,-0.0199,-0.0219,-0.0239,-0.0245,-0.018,-0.018,-0.018,0,0,-0.0213,-0.0225,-0.0229,-0.024,-0.0248,-0.0251,-0.0267,-0.0268,-0.0277,-0.0274,-0.0278,-0.027,-0.0252,-0.0239,-0.0229,-0.0224,-0.0221,-0.0197,-0.0199,-0.0218,-0.0238,-0.0245,-0.0251,-0.0179,-0.0179,-0.0179,0,0,-0.0196,-0.021,-0.0212,-0.0217,-0.023,-0.0238,-0.024,-0.025,-0.0262,-0.0258,-0.0267,-0.0269,-0.0234,-0.0241,-0.0235,-0.0223,-0.0226,-0.0202,-0.0234,-0.0253,-0.026,-0.0265,-0.0287,-0.0294,-0.0201,-0.0201,-0.0201,0,-0.0188,-0.0197,-0.0208,-0.0211,-0.0219,-0.0234,-0.0237,-0.0244,-0.025,-0.0257,-0.0261,-0.0252,-0.0243,-0.0246,-0.0257,-0.023,-0.0241,-0.0237,-0.0258,-0.0264,-0.027,-0.029,-0.0298,-0.0203,-0.0203,-0.0203,-0.0203,0,-0.0176,-0.0185,-0.0183,-0.0201,-0.0205,-0.0205,-0.0222,-0.0227,-0.0242,-0.0254,-0.0261,-0.0261,-0.026,-0.0254,-0.026,-0.0285,-0.0281,-0.0262,-0.0266,-0.028,-0.0299,-0.0307,-0.0206,-0.0205,-0.0204,-0.0204,0,0,-0.0163,-0.0174,-0.0177,-0.0183,-0.0202,-0.02,-0.0215,-0.0231,-0.0225,-0.0254,-0.0254,-0.0282,-0.0292,-0.0288,-0.0289,-0.032,-0.0376,-0.0318,-0.0319,-0.0359,-0.0426,-0.0457,-0.0468,-0.0364,-0.0366,-0.0367,-0.0424,0,-0.0158,-0.0156,-0.0169,-0.0172,-0.0175,-0.0195,-0.0193,-0.0209,-0.0216,-0.0211,-0.0254,-0.024,-0.0298,-0.0283,-0.0339,-0.0345,-0.0399,-0.0363,-0.0391,-0.0392,-0.0434,-0.0479,-0.0423,-0.0473,-0.0432,-0.0433,-0.0434,0,-0.0156,-0.0154,-0.0159,-0.0154,-0.0154,-0.0161,-0.0162,-0.0157,-0.0166,-0.0166,-0.0203,-0.0209,-0.0269,-0.0293,-0.0395,-0.0369,-0.0423,-0.0447,-0.0449,-0.0475,-0.0438,-0.045,-0.0488,-0.0447,-0.0446,-0.0445,-0.0444,0,-0.0152,-0.015,-0.0155,-0.0159,-0.0155,-0.0165,-0.0156,-0.0155,-0.0119,-0.0135,-0.0102,-0.0186,-0.0184,-0.0291,-0.0385,-0.0381,-0.0485,-0.0466,-0.0557,-0.0558,-0.0518,-0.0514,-0.0562,-0.0562,-0.0562,-0.0562,-0.0562,0,-0.0149,-0.016,-0.0154,-0.0161,-0.0138,-0.0145,-0.011,-0.0108,-0.0066,-0.0013,-0.0078,-0.0059,-0.0185,-0.0254,-0.037,-0.0502,-0.0482,-0.0591,-0.0587,-0.0528,-0.0524,-0.0501,-0.0493,-0.0564,-0.0563,-0.0563,-0.0563,0,-0.0169,-0.0166,-0.0168,-0.0156,-0.0144,-0.0131,-0.0061,-0.0015,0.001,0.008,0.0084,0.0044,-0.007,-0.0208,-0.0347,-0.0452,-0.0577,-0.063,-0.0563,-0.0552,-0.0642,-0.0635,-0.0733,-0.0734,-0.0736,-0.0737,-0.0738,0,-0.0182,-0.0189,-0.0164,-0.0132,-0.0135,-0.0095,-0.0045,0.0006,0.0073,0.0136,0.0177,0.0103,0.0034,-0.0199,-0.0381,-0.0588,-0.0624,-0.0669,-0.0671,-0.068,-0.0665,-0.0656,-0.0647,-0.0621,-0.0621,-0.0621,-0.0621,0,-0.0201,-0.0203,-0.0185,-0.012,-0.0076,-0.0008,0.0063,0.0128,0.0202,0.0251,0.0283,0.0236,0.0039,-0.0158,-0.0427,-0.0557,-0.0635,-0.0678,-0.0695,-0.0595,-0.0582,-0.0565,-0.0558,-0.0622,-0.0622,-0.0622,-0.0622,-0.0622,-0.0209,-0.0188,-0.0147,-0.01,-0.0024,0.0061,0.0113,0.0199,0.0284,0.0385,0.0351,0.0307,0.0098,-0.0242,-0.0444,-0.0632,-0.0658,-0.0718,-0.0715,-0.0712,-0.0697,-0.0689,-0.0745,-0.0746,-0.0746,-0.0747,-0.0747,0,-0.0192,-0.0159,-0.0113,-0.0048,0.0018,0.0071,0.0186,0.0247,0.0321,0.0412,0.0439,0.0259,0.0054,-0.0178,-0.0442,-0.0633,-0.0609,-0.0692,-0.0615,-0.0616,-0.0616,-0.0592,-0.0615,-0.0615,-0.0615,-0.0614,0,0,-0.017,-0.0129,-0.012,-0.0037,0.0029,0.0148,0.0215,0.0298,0.0373,0.042,0.0434,0.0422,0.0108,-0.006,-0.0315,-0.0456,-0.0486,-0.0478,-0.0569,-0.0451,-0.0447,-0.0623,-0.0587,0,0,0,0,0]}],[{"header":{"parameterUnit":"m.s-1","parameterCategory":2,"la1":30.2991,"la2":30.254,"lo1":-89.0895,"lo2":-89.0444,"dy":0.0017,"dx":0.0017,"nx":28,"ny":28,"refTime":"2025-07-07T03:00:00:Z","depth":"4","parameterNumber":2,"parameterNumberName":"U-component_of_CURRENTS"},"data":[0,0,0,0,0,0,0,0,0,0,0,0,0,0,0,0,0,0,0,0,0,0,0,0,0,0,0,0,0,0,0,0,0,0,0,0,0,0,0,0,0,0,0,0,0,0,0,0,0,0,0,0,0,0,0,0,0,0,0.0241,0.0242,0,0.0286,0.0287,0.0287,0.0325,0.0326,0.0327,0.0327,0.0363,0.0363,0.0364,0,0,0,0,0,0,0,0,0,0,0,0,0,0.0185,0.0185,0.0241,0.0242,0.0243,0.0286,0.0287,0.0287,0.0325,0.0326,0.0327,0.0327,0.0363,0.0363,0.0364,0,0,0,0,0,0,0,0,0,0,0,0,0,0.0216,0.0185,0.0241,0.0268,0.0271,0.0286,0.0287,0.0287,0.0325,0.0326,0.0327,0.0328,0.0362,0.0363,0.0364,0.0349,0,0,0.0365,0.0366,0,0,0,0,0,0,0,0,0.0214,0.0217,0.0264,0.0267,0.027,0.0303,0.028,0.0308,0.0325,0.0303,0.0327,0.0328,0.0342,0.0345,0.0349,0.0351,0.0353,0.0365,0.0366,0.0366,0.0366,0,0,0,0,0,0,0,0.0212,0.0216,0.0257,0.0264,0.0268,0.0277,0.0282,0.0285,0.0315,0.0305,0.0308,0.0316,0.0344,0.0348,0.035,0.0353,0.0365,0.0366,0.0366,0.0367,0.0399,0.04,0,0,0,0,0,0,0.0209,0.0214,0.0256,0.0259,0.0245,0.0277,0.0283,0.029,0.0316,0.0321,0.0315,0.0317,0.0347,0.0349,0.0351,0.0393,0.0366,0.0367,0.0367,0.0399,0.0399,0.04,0,0,0,0,0,0,0.0207,0.0212,0.0254,0.0239,0.0245,0.0278,0.0285,0.029,0.0311,0.0324,0.0329,0.0332,0.0347,0.035,0.0371,0.0393,0.0367,0.0367,0.0398,0.0399,0.04,0.044,0,0,0,0,0,0,0.0206,0.0211,0.0216,0.0238,0.0246,0.0275,0.0284,0.0291,0.0314,0.0318,0.034,0.0343,0.0348,0.037,0.0371,0.0393,0.0368,0.0398,0.0399,0.0399,0.0438,0.0442,0.0446,0,0,0,0,0,0.0203,0.0207,0.0215,0.0221,0.025,0.0275,0.028,0.0305,0.0314,0.0326,0.0342,0.0343,0.0377,0.0371,0.0372,0.0395,0.0397,0.0398,0.0399,0.0436,0.0441,0.0446,0,0,0,0,0,0,0.0181,0.0212,0.0222,0.0234,0.0258,0.0283,0.0295,0.031,0.0331,0.0339,0.0348,0.0353,0.0376,0.0376,0.0369,0.0406,0.0388,0.0389,0.0415,0.042,0.0424,0.0447,0.0368,0,0,0,0,0,0.0178,0.0191,0.0221,0.023,0.0244,0.0271,0.0284,0.0304,0.0325,0.0336,0.0351,0.0366,0.0378,0.0393,0.0398,0.0419,0.0429,0.0434,0.0438,0.0441,0.0461,0.0492,0.0501,0.0404,0.0404,0.0404,0,0,0.0168,0.0189,0.0194,0.0226,0.0247,0.0269,0.0281,0.0309,0.0333,0.0334,0.0369,0.0375,0.0384,0.0409,0.042,0.0417,0.047,0.0443,0.0446,0.0464,0.0494,0.0504,0.0512,0.0405,0.0404,0.0404,0,0,0.0162,0.0179,0.0192,0.0216,0.0254,0.0273,0.0284,0.0319,0.0344,0.0373,0.0381,0.0406,0.0422,0.0442,0.045,0.0477,0.0482,0.0475,0.0525,0.0554,0.0563,0.0571,0.0584,0.0593,0.0486,0.0486,0.0486,0,0.0152,0.0173,0.0199,0.0222,0.0246,0.0276,0.0301,0.0326,0.0364,0.0401,0.0391,0.0446,0.0441,0.0493,0.05,0.0488,0.0502,0.0508,0.0561,0.0569,0.0577,0.0588,0.0597,0.0488,0.0488,0.0488,0.0488,0,0.0159,0.018,0.0191,0.0232,0.0259,0.0284,0.0328,0.0364,0.0394,0.0432,0.0493,0.0495,0.0536,0.0532,0.0524,0.058,0.0571,0.0556,0.0553,0.0589,0.0598,0.0607,0.0491,0.049,0.049,0.0489,0,0,0.0128,0.0185,0.0189,0.0221,0.0271,0.0299,0.0347,0.0415,0.0474,0.0508,0.0575,0.0598,0.0619,0.063,0.0626,0.0654,0.0698,0.0634,0.0634,0.0653,0.0762,0.0716,0.072,0.0698,0.07,0.0702,0.0743,0,0.0129,0.0168,0.0201,0.025,0.0279,0.0334,0.0389,0.0459,0.0511,0.058,0.0617,0.0666,0.0651,0.0669,0.0699,0.0692,0.0726,0.0688,0.0719,0.072,0.0681,0.0731,0.0708,0.075,0.0752,0.0753,0.0754,0,0.0126,0.0159,0.0198,0.0288,0.0311,0.0357,0.0467,0.0519,0.0624,0.0665,0.0731,0.075,0.0798,0.0764,0.0815,0.0794,0.0791,0.0787,0.0788,0.0743,0.0692,0.0708,0.077,0.0769,0.0768,0.0766,0.0766,0,0.0092,0.0162,0.0196,0.0219,0.0318,0.038,0.0451,0.0563,0.0624,0.072,0.0762,0.083,0.0852,0.0873,0.0861,0.0845,0.0904,0.0873,0.0838,0.0834,0.0844,0.0835,0.0925,0.0925,0.0924,0.0924,0.0924,0,0.0079,0.0108,0.0197,0.0218,0.0312,0.0388,0.0498,0.0579,0.0682,0.0756,0.0808,0.0845,0.0882,0.091,0.0897,0.0897,0.0936,0.0867,0.0853,0.0856,0.0848,0.0849,0.084,0.0926,0.0926,0.0925,0.0925,0,0.0031,0.0075,0.0129,0.0244,0.0295,0.0369,0.052,0.0592,0.0693,0.0776,0.08,0.087,0.0903,0.0933,0.0958,0.0936,0.0937,0.0928,0.0934,0.0916,0.0837,0.0829,0.0899,0.0898,0.0897,0.0897,0.0896,0,0.0009,0.0023,0.0135,0.0188,0.025,0.0368,0.0451,0.0583,0.0644,0.0776,0.0798,0.0868,0.0903,0.091,0.0934,0.0941,0.0927,0.0932,0.089,0.0861,0.0841,0.0834,0.0828,0.0895,0.0894,0.0894,0.0894,0,-0.0028,0.0003,0.0051,0.0157,0.0252,0.0341,0.0466,0.0504,0.0641,0.0727,0.0787,0.0822,0.0864,0.0876,0.0902,0.0895,0.0931,0.0923,0.0924,0.0884,0.0856,0.0835,0.083,0.0891,0.0891,0.0892,0.0892,0,-0.0056,-0.0029,0.0038,0.0136,0.0229,0.0303,0.0375,0.0467,0.0547,0.0696,0.0703,0.0779,0.0847,0.0852,0.0861,0.0871,0.0854,0.0831,0.0836,0.084,0.0802,0.0757,0.077,0,0,0,0,0,-0.0069,-0.0041,0.0025,0.0127,0.0204,0.0269,0.0379,0.0441,0.0564,0.0594,0.066,0.0696,0.0744,0.0766,0.0764,0.0818,0.0842,0.0812,0.0813,0.0874,0.0878,0.0839,0,0,0,0,0,0,-0.0071,-0.0028,0.0007,0.009,0.0148,0.024,0.0302,0.0382,0.0411,0.0529,0.0546,0.0654,0.0687,0.073,0.0744,0.0757,0.0747,0.0867,0.0866,0.0872,0.0876,0.0878,0.0839,0,0,0,0,0]},{"header":{"parameterUnit":"m.s-1","parameterCategory":2,"la1":30.2991,"la2":30.254,"lo1":-89.0895,"lo2":-89.0444,"dy":0.0017,"dx":0.0017,"nx":28,"ny":28,"refTime":"2025-07-07T03:00:00:Z","depth":"4","parameterNumber":3,"parameterNumberName":"V-component_of_CURRENTS"},"data":[0,0,0,0,0,0,0,0,0,0,0,0,0,0,0,0,0,0,0,0,0,0,0,0,0,0,0,0,0,0,0,0,0,0,0,0,0,0,0,0,0,0,0,0,0,0,0,0,0,0,0,0,0,0,0,0,0,0,0.0183,0.0183,0,0.0153,0.0153,0.0152,0.0149,0.015,0.015,0.0151,0.007,0.0067,0.0065,0,0,0,0,0,0,0,0,0,0,0,0,0,0.016,0.0161,0.0183,0.0183,0.0182,0.0153,0.0153,0.0152,0.0149,0.015,0.015,0.0151,0.007,0.0067,0.0064,0,0,0,0,0,0,0,0,0,0,0,0,0,0.0153,0.0161,0.0183,0.0178,0.0178,0.0154,0.0153,0.0152,0.0149,0.015,0.0151,0.0151,0.0071,0.0068,0.0064,0.0027,0,0,0.0052,0.0051,0,0,0,0,0,0,0,0,0.0154,0.0154,0.0179,0.0179,0.0178,0.0157,0.0115,0.0108,0.0149,0.0159,0.0151,0.0151,0.0094,0.0089,0.0081,0.0024,0.002,0.0052,0.005,0.0048,0.0047,0,0,0,0,0,0,0,0.0154,0.0155,0.017,0.0179,0.0178,0.0152,0.0152,0.0114,0.0121,0.0158,0.0158,0.0157,0.0094,0.0084,0.0079,0.0019,0.0052,0.0049,0.0046,0.0045,-0.0092,-0.0094,0,0,0,0,0,0,0.0164,0.0156,0.0171,0.0169,0.0169,0.0152,0.0152,0.0162,0.0123,0.0118,0.0156,0.0157,0.0091,0.0083,0.0076,0.0047,0.0048,0.0044,0.0042,-0.0091,-0.0093,-0.0094,0,0,0,0,0,0,0.0164,0.0166,0.0172,0.0162,0.0161,0.0152,0.0163,0.0161,0.0149,0.0122,0.0117,0.0146,0.0091,0.0081,0.0033,0.0044,0.0043,0.0039,-0.0089,-0.0092,-0.0093,-0.0021,0,0,0,0,0,0,0.0164,0.0167,0.0172,0.0163,0.0162,0.0159,0.0162,0.016,0.0148,0.0148,0.0111,0.0105,0.0091,0.0039,0.0029,0.0038,0.0036,-0.0088,-0.009,-0.0093,-0.0021,-0.002,-0.0019,0,0,0,0,0,0.0163,0.0171,0.0173,0.0174,0.0172,0.0159,0.0156,0.015,0.0147,0.0141,0.011,0.0106,0.0016,0.0034,0.0023,0.0032,-0.0087,-0.009,-0.0093,-0.0022,-0.002,-0.0019,0,0,0,0,0,0,0.0164,0.0171,0.0173,0.0183,0.0173,0.0159,0.0153,0.0144,0.0115,0.0112,0.0085,0.0076,0.0037,0.0009,0.003,-0.0021,-0.0035,-0.0041,0.0022,0.0023,0.0024,0.0054,0.0033,0,0,0,0,0,0.0167,0.0175,0.0172,0.0178,0.0174,0.016,0.0152,0.0147,0.0123,0.0112,0.0085,0.0048,0.0015,0.0,-0.004,-0.0069,-0.0108,-0.0074,-0.0073,-0.0071,-0.0059,-0.0116,-0.0117,-0.0104,-0.0104,-0.0104,0,0,0.0168,0.0173,0.0177,0.0178,0.0169,0.0179,0.0157,0.0145,0.0158,0.0104,0.0097,0.0045,0.0002,-0.0025,-0.0044,-0.0042,-0.0102,-0.0075,-0.0072,-0.0061,-0.0119,-0.012,-0.0121,-0.0106,-0.0106,-0.0105,0,0,0.0181,0.0179,0.0194,0.0191,0.0183,0.0178,0.0175,0.0155,0.0152,0.0125,0.0094,0.0051,-0.0006,-0.0019,-0.0036,-0.0058,-0.01,-0.0083,-0.0037,-0.0092,-0.0093,-0.0094,-0.0159,-0.0166,-0.0071,-0.0071,-0.0071,0,0.0181,0.0211,0.0192,0.0208,0.0217,0.0183,0.0205,0.0195,0.0162,0.0149,0.0129,0.0035,0.0008,-0.0016,-0.0013,-0.0047,-0.01,-0.0028,-0.0086,-0.0088,-0.009,-0.0157,-0.0165,-0.0068,-0.0068,-0.0069,-0.0069,0,0.0211,0.0236,0.0241,0.0264,0.0262,0.0268,0.0262,0.0247,0.0225,0.0203,0.015,0.0094,0.0035,0.0025,0.0009,-0.0021,-0.0063,-0.0081,-0.0077,-0.0086,-0.0157,-0.0168,-0.0063,-0.0065,-0.0065,-0.0066,0,0,0.021,0.0259,0.0261,0.0277,0.0296,0.0283,0.0312,0.0308,0.0277,0.0249,0.0204,0.0177,0.0111,0.0086,0.0042,0.0018,-0.0034,-0.0028,-0.0033,-0.0069,-0.0179,-0.0137,-0.0145,-0.007,-0.0071,-0.0072,-0.0226,0,0.0243,0.0295,0.0315,0.0348,0.0368,0.0362,0.0369,0.0351,0.0311,0.0245,0.0207,0.0127,0.0145,0.0077,0.0068,-0.0033,-0.0058,0.0008,-0.0185,-0.0191,-0.0131,-0.0153,-0.0075,-0.0234,-0.0237,-0.0239,-0.024,0,0.0269,0.0301,0.0357,0.0375,0.0378,0.0387,0.0358,0.0354,0.0286,0.024,0.0186,0.011,0.0066,0.0056,-0.0046,-0.0015,-0.0079,-0.0135,-0.0143,-0.0129,-0.0166,-0.0225,-0.0259,-0.0258,-0.0256,-0.0255,-0.0254,0,0.0261,0.032,0.0364,0.0377,0.0395,0.0401,0.0393,0.0345,0.0306,0.021,0.0138,0.0075,-0.0007,-0.0065,-0.0138,-0.0124,-0.0269,-0.0276,-0.0291,-0.0291,-0.0312,-0.031,-0.0343,-0.0342,-0.0342,-0.0342,-0.0341,0,0.0287,0.0305,0.0354,0.0368,0.0358,0.0376,0.0327,0.0302,0.0233,0.0171,0.0113,0.0047,-0.0044,-0.0128,-0.0176,-0.0256,-0.03,-0.0283,-0.0321,-0.0284,-0.0276,-0.0321,-0.0316,-0.0347,-0.0346,-0.0345,-0.0344,0,0.0252,0.0308,0.0324,0.0354,0.0353,0.0326,0.0291,0.0236,0.019,0.0105,0.007,-0.0013,-0.0102,-0.0181,-0.0311,-0.0319,-0.0401,-0.0416,-0.0381,-0.0416,-0.0384,-0.0375,-0.0472,-0.0471,-0.0471,-0.0471,-0.047,0,0.0235,0.0254,0.0281,0.0263,0.0273,0.0246,0.0215,0.0201,0.0163,0.0091,0.0051,-0.0054,-0.0102,-0.0249,-0.0317,-0.0429,-0.0415,-0.048,-0.0398,-0.0367,-0.0395,-0.0386,-0.0377,-0.047,-0.047,-0.047,-0.047,0,0.0169,0.0182,0.0184,0.0177,0.0159,0.0135,0.0119,0.0106,0.0096,0.0055,0.0028,-0.0038,-0.0138,-0.0222,-0.0318,-0.0381,-0.0451,-0.0477,-0.0478,-0.0401,-0.0366,-0.0393,-0.0384,-0.0469,-0.0469,-0.0469,-0.0469,0,0.0077,0.0058,0.0074,0.0067,0.0051,0.0056,0.0054,0.0057,0.0043,0.0032,0.0031,-0.005,-0.0098,-0.0199,-0.0273,-0.0344,-0.0347,-0.0359,-0.0366,-0.0368,-0.0263,-0.0199,-0.0283,0,0,0,0,0,-0.0012,-0.002,-0.004,-0.0018,-0.0017,-0.0008,-0.0001,0.0013,0.0052,0.0041,0.0049,-0.0016,-0.0112,-0.0161,-0.0223,-0.0282,-0.0382,-0.0358,-0.0405,-0.0463,-0.0464,-0.035,0,0,0,0,0,0,-0.0083,-0.0103,-0.0062,-0.0063,-0.0057,-0.0049,-0.0033,-0.001,0.0006,0.0034,-0.0013,-0.0023,-0.0123,-0.0073,-0.0221,-0.0245,-0.028,-0.0404,-0.0405,-0.0462,-0.0463,-0.0464,-0.0347,0,0,0,0,0]}]]